TimeEST,TemperatureF,Dew PointF,Humidity,Sea Level PressureIn,VisibilityMPH,Wind Direction,Wind SpeedMPH,Gust SpeedMPH,PrecipitationIn,Events,Conditions,WindDirDegrees,DateUTC
12:49 AM,33.8,33.8,100,29.94,5.0,WNW,5.8,-,N/A,,Overcast,290,2013-03-01 05:49:00
12:54 AM,34.0,33.1,96,29.96,6.0,West,5.8,-,N/A,,Overcast,280,2013-03-01 05:54:00
1:39 AM,33.8,33.8,100,29.95,6.0,West,4.6,-,N/A,,Overcast,270,2013-03-01 06:39:00
1:54 AM,34.0,34.0,100,29.96,6.0,West,4.6,-,N/A,,Overcast,280,2013-03-01 06:54:00
2:54 AM,34.0,33.1,96,29.95,8.0,WNW,4.6,-,N/A,,Overcast,290,2013-03-01 07:54:00
3:54 AM,34.0,33.1,96,29.95,8.0,WNW,4.6,-,N/A,,Overcast,290,2013-03-01 08:54:00
4:54 AM,34.0,33.1,96,29.96,8.0,WNW,4.6,-,N/A,,Overcast,290,2013-03-01 09:54:00
5:43 AM,33.8,33.8,100,29.94,7.0,West,5.8,-,N/A,,Overcast,280,2013-03-01 10:43:00
5:54 AM,33.1,33.1,100,29.96,8.0,WNW,6.9,-,N/A,,Overcast,300,2013-03-01 10:54:00
6:01 AM,33.8,32.0,93,29.94,8.0,WNW,5.8,-,N/A,,Overcast,300,2013-03-01 11:01:00
6:12 AM,33.8,32.0,93,29.94,7.0,WNW,4.6,-,N/A,,Overcast,300,2013-03-01 11:12:00
6:26 AM,33.8,32.0,93,29.95,7.0,WNW,6.9,-,N/A,,Overcast,300,2013-03-01 11:26:00
6:54 AM,33.1,32.0,96,29.96,8.0,WNW,4.6,-,N/A,,Overcast,300,2013-03-01 11:54:00
7:12 AM,33.8,30.2,87,29.94,7.0,NW,6.9,-,N/A,,Overcast,310,2013-03-01 12:12:00
7:27 AM,32.0,30.2,93,29.95,7.0,WNW,8.1,-,N/A,,Overcast,300,2013-03-01 12:27:00
7:54 AM,32.0,30.9,96,29.98,7.0,WNW,8.1,-,0.00,Snow,Light Snow,290,2013-03-01 12:54:00
8:19 AM,32.0,30.2,93,29.97,1.8,WNW,6.9,-,0.00,Snow,Light Snow,290,2013-03-01 13:19:00
8:27 AM,32.0,30.2,93,29.97,1.5,WNW,6.9,-,0.00,Snow,Light Snow,290,2013-03-01 13:27:00
8:49 AM,32.0,32.0,100,29.98,1.8,West,5.8,-,0.01,Snow,Light Snow,280,2013-03-01 13:49:00
8:54 AM,32.0,32.0,100,30.00,2.0,WNW,6.9,-,0.01,Snow,Light Snow,300,2013-03-01 13:54:00
9:15 AM,33.8,32.0,93,29.98,3.0,WNW,6.9,-,0.00,Snow,Light Snow,300,2013-03-01 14:15:00
9:54 AM,33.1,32.0,96,30.01,2.0,NW,8.1,-,0.00,Snow,Light Snow,320,2013-03-01 14:54:00
10:03 AM,33.8,32.0,93,29.99,1.5,NW,8.1,-,0.00,Snow,Light Snow,310,2013-03-01 15:03:00
10:35 AM,33.8,32.0,93,29.99,1.2,NW,8.1,-,0.01,Snow,Light Snow,310,2013-03-01 15:35:00
10:52 AM,33.8,33.8,100,29.99,2.0,WNW,6.9,-,0.01,Snow,Light Snow,300,2013-03-01 15:52:00
10:54 AM,33.1,32.0,96,30.01,2.0,NW,8.1,-,0.01,Snow,Light Snow,310,2013-03-01 15:54:00
11:07 AM,33.8,32.0,93,29.99,3.0,NW,9.2,-,0.00,Snow,Light Snow,320,2013-03-01 16:07:00
11:54 AM,35.1,32.0,89,30.01,7.0,NW,6.9,-,0.01,Snow,Light Snow,320,2013-03-01 16:54:00
12:54 PM,35.1,33.1,92,30.00,5.0,NW,8.1,-,0.00,Snow,Light Snow,320,2013-03-01 17:54:00
1:05 PM,33.8,32.0,93,29.98,2.5,West,5.8,-,0.00,Snow,Light Snow,280,2013-03-01 18:05:00
1:54 PM,34.0,33.1,96,29.99,4.0,WNW,5.8,-,0.01,Snow,Light Snow,300,2013-03-01 18:54:00
2:45 PM,35.6,33.8,93,29.96,9.0,NW,6.9,-,0.00,,Overcast,310,2013-03-01 19:45:00
2:54 PM,35.1,33.1,92,29.98,10.0,WNW,6.9,-,0.00,,Overcast,300,2013-03-01 19:54:00
3:01 PM,35.6,32.0,87,29.96,10.0,West,8.1,-,N/A,,Overcast,280,2013-03-01 20:01:00
3:43 PM,35.6,33.8,93,29.96,10.0,NNW,6.9,-,N/A,,Overcast,340,2013-03-01 20:43:00
3:54 PM,34.0,33.1,96,29.98,3.0,WNW,6.9,-,0.00,Snow,Light Snow,300,2013-03-01 20:54:00
4:20 PM,35.6,33.8,93,29.96,8.0,WNW,5.8,-,0.01,Snow,Light Snow,290,2013-03-01 21:20:00
4:36 PM,35.6,32.0,87,29.96,10.0,WNW,4.6,-,0.01,,Overcast,290,2013-03-01 21:36:00
4:54 PM,35.1,33.1,92,29.98,10.0,West,8.1,-,0.01,,Overcast,270,2013-03-01 21:54:00
5:54 PM,34.0,33.1,96,29.99,6.0,WNW,5.8,-,0.00,Snow,Light Snow,290,2013-03-01 22:54:00
6:07 PM,33.8,33.8,100,29.97,9.0,WNW,5.8,-,0.00,,Overcast,300,2013-03-01 23:07:00
6:54 PM,33.1,32.0,96,30.01,5.0,WNW,5.8,-,0.00,Snow,Light Snow,300,2013-03-01 23:54:00
7:19 PM,33.8,32.0,93,29.99,6.0,NW,5.8,-,0.00,Snow,Light Snow,310,2013-03-02 00:19:00
7:54 PM,33.1,32.0,96,30.01,5.0,NW,4.6,-,0.00,Snow,Light Snow,310,2013-03-02 00:54:00
8:29 PM,32.0,32.0,100,29.99,6.0,NW,4.6,-,0.00,,Overcast,310,2013-03-02 01:29:00
8:54 PM,33.1,32.0,96,30.01,4.0,NW,5.8,-,0.00,Snow,Light Snow,310,2013-03-02 01:54:00
9:29 PM,32.0,32.0,100,29.99,2.5,North,4.6,-,0.01,Snow,Light Snow,350,2013-03-02 02:29:00
9:54 PM,32.0,32.0,100,30.02,2.5,North,3.5,-,0.01,Snow,Light Snow,360,2013-03-02 02:54:00
10:54 PM,32.0,30.9,96,30.02,7.0,NE,9.2,-,0.00,Snow,Light Snow,40,2013-03-02 03:54:00
11:08 PM,32.0,30.2,93,30.00,8.0,NE,8.1,-,0.00,,Overcast,40,2013-03-02 04:08:00
11:17 PM,32.0,30.2,93,30.00,8.0,NE,11.5,-,0.00,,Overcast,40,2013-03-02 04:17:00
11:35 PM,32.0,30.2,93,30.00,8.0,NE,9.2,-,0.00,,Overcast,40,2013-03-02 04:35:00
11:54 PM,32.0,30.9,96,30.02,5.0,NNE,9.2,-,0.00,Snow,Light Snow,30,2013-03-02 04:54:00